Weather History for KGCD - August, 2013

Change the Weather History Date:

Tuesday, August 27, 2013

  Actual Average (KBNO) Record (KBNO)
Temperature  
Mean Temperature 70 °F 62 °F  
Max Temperature 89 °F 82 °F 95 °F (1986)
Min Temperature 51 °F 42 °F 32 °F (1995)
Degree Days  
Heating Degree Days 0 4  
Month to date heating degree days 60  
Since 1 June heating degree days 336  
Since 1 July heating degree days 118  
Cooling Degree Days 5 1  
Month to date cooling degree days 69  
Year to date cooling degree days 201  
Since 1 June cooling degree days 198  
Growing Degree Days 20 (Base 50)    
Moisture  
Dew Point 39 °F    
Average Humidity 41    
Maximum Humidity 76    
Minimum Humidity 10    
Precipitation  
Precipitation 0.00 in 0.01 in 0.11 in (1996)
Month to date precipitation 0.31  
Year to date precipitation 6.93  
Sea Level Pressure  
Sea Level Pressure 29.95 in    
Wind  
Wind Speed 6 mph (South)    
Max Wind Speed 17 mph    
Max Gust Speed 24 mph    
Visibility 10 miles    
Events      
T = Trace of Precipitation, MM = Missing Value Source: NWS Daily Summary

Daily Weather History Graph

Daily Weather History Graph

Search for Another Location

Airport or City:

Trip Planner

Search our weather history database for the weather conditions in past years. The results will help you decide how hot, cold, wet, or windy it might be!

Date:

Astronomy

Aug. 27, 2013 Rise Set
Actual Time 6:13 AM PDT 7:40 PM PDT
Civil Twilight 5:42 AM PDT 8:10 PM PDT
Nautical Twilight 5:06 AM PDT 8:47 PM PDT
Astronomical Twilight 4:26 AM PDT 9:26 PM PDT
Moon 11:19 PM PDT (8/27) 1:33 PM PDT (8/27)
Length of Visible Light 14h 27m
Length of Day
13h 27m
Waning Gibbous, 56% of the Moon is Illuminated
Aug 27
Waning Gibbous
Aug 28
Last Quarter
Sep 5
New
Sep 12
First Quarter
Sep 19
Full

Hourly Weather History & Observations

Time (PDT) Temp. Dew Point Humidity Pressure Visibility Wind Dir Wind Speed Gust Speed Precip Events Conditions
12:15 AM 63.3 °F 48.6 °F 59% 30.04 in 10.0 mi SW 3.5 mph - N/A   Clear
12:35 AM 61.9 °F 48.9 °F 62% 30.04 in 10.0 mi WSW 6.9 mph - N/A   Clear
12:55 AM 60.8 °F 48.7 °F 64% 30.04 in 10.0 mi WSW 5.8 mph - N/A   Clear
1:15 AM 61.2 °F 49.1 °F 65% 30.04 in 10.0 mi SW 4.6 mph - N/A   Clear
1:35 AM 59.2 °F 49.1 °F 69% 30.04 in 10.0 mi SW 5.8 mph - N/A   Clear
1:55 AM 59.4 °F 49.1 °F 69% 30.04 in 10.0 mi WSW 4.6 mph - N/A   Clear
2:15 AM 58.1 °F 48.9 °F 71% 30.04 in 10.0 mi Calm Calm - N/A   Clear
2:35 AM 59.0 °F 48.7 °F 69% 30.03 in 10.0 mi Calm Calm - N/A   Clear
2:55 AM 58.5 °F 48.7 °F 70% 30.03 in 10.0 mi Calm Calm - N/A   Clear
3:15 AM 59.2 °F 48.7 °F 68% 30.03 in 10.0 mi Calm Calm - N/A   Clear
3:35 AM 58.3 °F 48.6 °F 70% 30.03 in 10.0 mi Calm Calm - N/A   Clear
3:55 AM 55.9 °F 46.8 °F 71% 30.03 in 10.0 mi ESE 8.1 mph - N/A   Clear
4:15 AM 54.5 °F 45.3 °F 71% 30.04 in 10.0 mi ESE 10.4 mph - N/A   Clear
4:35 AM 54.5 °F 45.0 °F 70% 30.04 in 10.0 mi East 6.9 mph - N/A   Clear
4:55 AM 52.7 °F 44.2 °F 73% 30.04 in 10.0 mi ESE 5.8 mph - N/A   Clear
5:15 AM 51.8 °F 44.1 °F 75% 30.04 in 10.0 mi East 6.9 mph - N/A   Clear
5:35 AM 53.1 °F 45.0 °F 74% 30.03 in 10.0 mi ESE 9.2 mph - N/A   Clear
5:55 AM 53.1 °F 45.3 °F 75% 30.03 in 10.0 mi ESE 9.2 mph - N/A   Clear
6:15 AM 53.1 °F 45.1 °F 74% 30.04 in 10.0 mi ESE 10.4 mph - N/A   Clear
6:35 AM 52.3 °F 45.0 °F 76% 30.04 in 10.0 mi ESE 8.1 mph - N/A   Clear
6:55 AM 52.3 °F 44.8 °F 75% 30.04 in 10.0 mi ESE 6.9 mph - N/A   Clear
7:15 AM 54.3 °F 45.5 °F 72% 30.04 in 10.0 mi ESE 6.9 mph - N/A   Clear
7:35 AM 54.7 °F 45.5 °F 71% 30.04 in 10.0 mi ESE 8.1 mph - N/A   Clear
7:55 AM 56.1 °F 45.7 °F 68% 30.04 in 10.0 mi SE 9.2 mph - N/A   Clear
8:15 AM 57.4 °F 46.0 °F 66% 30.04 in 10.0 mi East 5.8 mph - N/A   Clear
8:35 AM 59.2 °F 46.8 °F 63% 30.03 in 10.0 mi SE 6.9 mph - N/A   Clear
8:55 AM 61.7 °F 47.3 °F 59% 30.03 in 10.0 mi SE 5.8 mph - N/A   Clear
9:15 AM 63.5 °F 47.3 °F 56% 30.02 in 10.0 mi East 5.8 mph - N/A   Clear
9:35 AM 64.9 °F 47.8 °F 54% 30.01 in 10.0 mi East 4.6 mph - N/A   Clear
9:55 AM 66.9 °F 49.1 °F 53% 30.01 in 10.0 mi ESE 3.5 mph - N/A   Clear
10:15 AM 69.1 °F 48.7 °F 48% 30.00 in 10.0 mi NE 4.6 mph - N/A   Clear
10:35 AM 70.3 °F 49.1 °F 47% 30.00 in 10.0 mi NE 3.5 mph - N/A   Clear
10:55 AM 72.3 °F 48.4 °F 43% 29.99 in 10.0 mi Calm Calm - N/A   Clear
11:15 AM 73.4 °F 47.8 °F 40% 29.98 in 10.0 mi Calm Calm - N/A   Clear
11:35 AM 76.3 °F 45.9 °F 34% 29.97 in 10.0 mi Calm Calm - N/A   Clear
11:55 AM 80.6 °F 44.6 °F 28% 29.96 in 10.0 mi ESE 3.5 mph - N/A   Clear
12:15 PM 79.2 °F 42.1 °F 27% 29.95 in 10.0 mi Calm Calm - N/A   Clear
12:35 PM 84.9 °F 28.9 °F 13% 29.94 in 10.0 mi South 12.7 mph 20.7 mph N/A   Clear
12:55 PM 84.4 °F 28.4 °F 13% 29.93 in 10.0 mi SSW 17.3 mph 24.2 mph N/A   Clear
1:15 PM 87.1 °F 25.9 °F 11% 29.93 in 10.0 mi South 13.8 mph 23.0 mph N/A   Scattered Clouds
1:35 PM 86.0 °F 23.5 °F 10% 29.92 in 10.0 mi South 13.8 mph 24.2 mph N/A   Scattered Clouds
1:55 PM 87.8 °F 23.4 °F 10% 29.92 in 10.0 mi South 16.1 mph 21.9 mph N/A   Scattered Clouds
2:15 PM 86.0 °F 24.1 °F 10% 29.91 in 10.0 mi South 12.7 mph 19.6 mph N/A   Clear
2:35 PM 84.7 °F 25.0 °F 11% 29.91 in 10.0 mi South 9.2 mph - N/A   Scattered Clouds
2:55 PM 87.4 °F 27.1 °F 11% 29.90 in 10.0 mi South 12.7 mph 23.0 mph N/A   Clear
3:15 PM 88.5 °F 27.3 °F 11% 29.90 in 10.0 mi SW 13.8 mph 20.7 mph N/A   Scattered Clouds
3:35 PM 88.5 °F 29.5 °F 12% 29.89 in 10.0 mi SW 16.1 mph 20.7 mph N/A   Clear
3:55 PM 89.2 °F 30.6 °F 12% 29.89 in 10.0 mi SSE 9.2 mph 19.6 mph N/A   Clear
4:15 PM 88.3 °F 30.0 °F 12% 29.88 in 10.0 mi SW 9.2 mph 20.7 mph N/A   Clear
4:35 PM 88.3 °F 31.3 °F 13% 29.88 in 10.0 mi South 13.8 mph 19.6 mph N/A   Clear
4:55 PM 88.2 °F 29.5 °F 12% 29.87 in 10.0 mi Calm Calm - N/A   Clear
5:15 PM 88.2 °F 28.6 °F 12% 29.87 in 10.0 mi South 10.4 mph - N/A   Clear
5:35 PM 88.3 °F 29.1 °F 12% 29.86 in 10.0 mi South 10.4 mph - N/A   Clear
5:55 PM 86.5 °F 28.0 °F 12% 29.85 in 10.0 mi South 6.9 mph - N/A   Clear
6:15 PM 85.5 °F 27.7 °F 12% 29.85 in 10.0 mi South 4.6 mph - N/A   Clear
6:35 PM 84.9 °F 28.6 °F 13% 29.84 in 10.0 mi South 6.9 mph - N/A   Clear
6:55 PM 82.9 °F 28.9 °F 14% 29.83 in 10.0 mi South 5.8 mph - N/A   Clear
7:15 PM 81.0 °F 29.7 °F 15% 29.83 in 10.0 mi SSE 5.8 mph - N/A   Clear
7:35 PM 79.7 °F 29.1 °F 16% 29.83 in 10.0 mi SSE 5.8 mph - N/A   Clear
7:55 PM 76.5 °F 30.4 °F 18% 29.83 in 10.0 mi SSW 8.1 mph - N/A   Clear
8:15 PM 76.5 °F 30.4 °F 18% 29.84 in 10.0 mi SSW 9.2 mph - N/A   Clear
8:35 PM 78.3 °F 29.7 °F 17% 29.84 in 10.0 mi South 6.9 mph - N/A   Clear
8:55 PM 76.3 °F 30.9 °F 19% 29.84 in 10.0 mi South 10.4 mph - N/A   Clear
9:15 PM 75.2 °F 34.0 °F 22% 29.85 in 10.0 mi West 9.2 mph - N/A   Clear
9:35 PM 73.6 °F 34.5 °F 24% 29.87 in 10.0 mi WNW 3.5 mph - N/A   Clear
9:55 PM 73.2 °F 37.4 °F 27% 29.88 in 10.0 mi SSW 4.6 mph - N/A   Clear
10:15 PM 70.0 °F 42.4 °F 37% 29.88 in 10.0 mi SW 8.1 mph - N/A   Clear
10:35 PM 70.5 °F 44.1 °F 39% 29.89 in 10.0 mi WSW 8.1 mph - N/A   Clear
10:55 PM 69.8 °F 44.4 °F 40% 29.89 in 10.0 mi SW 5.8 mph - N/A   Clear
11:15 PM 70.3 °F 44.6 °F 40% 29.89 in 10.0 mi WSW 3.5 mph - N/A   Clear
11:35 PM 68.2 °F 44.6 °F 43% 29.89 in 10.0 mi Calm Calm - N/A   Clear
11:55 PM 67.1 °F 44.8 °F 45% 29.89 in 10.0 mi WNW 4.6 mph - N/A   Clear